Wetbulb
78.04 78.04 77.49 77.47 77.89 78.24 76.65 77.13 76.86 76.08 74.74 74.19 73.80 72.41 71.52 70.29 70.04 69.56 68.02 67.35 65.82 64.50 64.93 64.74 63.98 65.30 64.41 65.42 64.87 64.09 63.54 62.68 61.17 63.15 63.94 65.14 62.89 61.27 62.26 62.75 63.76 65.25 65.96
77.64 77.37 77.35 77.48 77.56 77.08 76.66 76.66 76.32 74.75 74.76 73.35 72.61 71.35 70.24 69.80 69.85 68.40 67.39 65.20 63.79 63.55 63.77 64.64 63.72 64.60 65.41 65.71 64.65 63.87 62.52 63.57 62.42 60.78 62.98 62.06 60.54 61.46 62.69 61.85 61.39 63.91 65.94
77.27 77.36 77.06 77.11 77.21 76.73 76.48 75.24 73.51 72.78 72.00 70.93 71.00 69.72 69.21 68.68 68.35 68.80 65.35 63.72 63.53 63.58 64.13 64.46 64.15 64.26 63.42 63.56 63.10 62.15 63.70 62.89 62.29 61.55 61.59 60.28 61.56 60.68 59.53 61.94 62.26 62.28 65.38
77.04 76.53 76.53 76.37 76.53 76.10 74.77 73.10 72.11 71.59 70.30 70.38 69.43 69.26 68.68 68.19 67.92 65.70 63.77 64.32 63.75 63.30 63.78 63.91 63.72 62.19 61.89 60.49 62.72 62.29 62.51 62.59 61.75 60.00 60.05 60.46 59.74 61.49 59.72 57.96 57.80 58.88 62.20
77.09 76.57 77.16 77.21 76.77 74.51 73.30 72.11 71.49 70.63 70.14 69.09 68.27 67.80 66.90 66.12 64.87 63.17 63.46 63.72 63.77 63.24 63.29 61.74 59.89 58.98 59.01 59.60 59.44 60.03 61.65 60.53 58.88 58.25 58.58 57.26 57.03 57.41 57.48 57.81 57.18 57.03 60.74
77.48 76.55 77.59 76.45 75.33 73.32 71.95 71.03 70.81 69.43 68.15 67.54 66.97 66.43 64.65 62.56 62.92 64.36 64.36 63.02 63.75 63.46 60.41 59.29 59.87 58.70 58.98 59.68 59.36 59.08 58.22 56.85 59.68 57.99 56.42 56.68 57.26 56.59 56.99 57.69 56.72 55.38 54.37
77.65 77.18 77.06 75.54 74.04 72.77 72.10 70.45 68.95 66.97 66.11 66.07 66.00 65.69 65.43 62.14 62.56 62.51 62.60 62.39 62.74 62.86 62.62 61.98 61.47 58.78 61.95 59.27 58.43 58.98 58.13 60.03 59.96 60.42 57.30 56.43 56.21 56.89 57.55 56.82 56.89 56.75 56.46
77.37 76.82 75.37 74.04 72.33 71.24 70.21 68.71 67.61 65.70 64.39 64.34 64.91 65.16 62.51 61.80 60.91 60.79 60.99 63.35 63.74 63.01 62.86 63.08 62.35 62.55 58.70 60.40 61.59 60.58 59.99 58.84 59.80 58.00 59.21 57.63 58.26 58.04 58.47 56.65 56.24 56.28 57.03
76.78 75.12 73.94 72.97 70.41 69.89 67.74 67.44 66.25 64.73 63.87 64.53 64.99 64.79 64.46 59.77 59.36 59.24 60.09 64.14 61.73 62.62 63.13 63.39 62.15 62.07 57.45 57.17 58.85 60.29 60.05 60.57 59.59 59.05 59.08 59.67 59.70 59.13 58.53 56.24 55.41 54.39 53.20
75.66 74.29 73.45 72.10 69.43 68.74 68.41 66.78 65.90 64.36 63.69 63.59 63.75 64.75 64.16 59.54 58.11 58.38 59.45 62.25 61.07 60.03 62.40 63.30 60.14 60.69 57.15 56.75 58.03 58.96 58.83 60.47 60.68 56.92 57.13 57.22 57.66 58.27 59.78 57.76 58.36 53.17 52.65
74.32 72.17 71.41 71.54 69.86 69.63 68.25 66.63 64.19 62.32 62.51 62.92 62.48 63.68 64.59 62.39 59.56 58.13 58.38 60.99 62.53 61.78 59.95 60.28 60.87 57.79 56.68 56.31 56.43 58.98 58.88 58.64 58.97 58.66 58.39 58.38 59.70 58.16 58.86 58.07 59.56 56.72 53.98
70.83 70.79 70.76 70.08 68.63 67.70 66.94 64.92 62.52 61.70 60.29 62.23 61.71 61.68 62.32 61.57 58.54 56.00 57.53 57.51 60.18 58.33 61.70 62.13 60.64 55.24 55.03 56.10 56.15 56.08 56.88 57.71 56.78 56.56 56.37 56.67 56.08 56.96 57.97 57.86 60.59 59.47 58.38
70.05 69.96 69.56 68.39 67.84 66.70 63.78 61.87 59.94 61.24 59.32 60.59 59.67 59.33 59.44 60.92 58.98 55.27 54.58 55.13 56.05 55.50 60.49 57.03 56.58 53.37 55.08 55.50 54.98 55.02 56.34 56.78 55.97 55.24 55.72 59.12 59.13 59.20 59.70 59.59 61.83 60.94 61.22
69.69 68.79 67.73 66.68 64.70 64.02 62.51 61.71 60.06 60.58 59.01 59.28 58.34 58.08 58.67 59.67 59.30 57.47 55.24 55.20 55.04 57.31 58.50 59.12 57.52 57.13 56.92 56.83 58.18 57.17 54.77 55.71 55.58 56.12 57.13 59.23 60.41 60.51 59.76 59.02 57.04 57.78 56.37
69.12 67.24 65.72 64.11 63.83 64.11 63.42 61.03 61.17 61.76 60.40 59.21 59.36 59.45 58.81 58.68 60.08 57.85 56.30 56.96 57.81 57.01 59.14 61.36 60.60 58.71 57.45 56.70 58.61 59.47 59.10 58.28 57.35 57.60 56.97 57.92 59.77 57.94 56.78 58.17 55.19 56.90 54.25
66.51 65.02 64.98 63.47 63.74 64.04 63.43 63.07 53.06 56.51 52.45 52.01 50.78 57.03 62.02 54.01 51.56 51.44 51.56 51.91 53.92 53.82 57.60 58.98 59.54 59.56 58.68 58.38 59.27 57.51 59.02 59.70 60.71 58.67 56.98 57.78 58.17 57.50 56.10 57.45 57.39 55.98 54.37
65.11 64.76 64.86 63.54 64.00 64.54 64.45 62.22 59.72 55.07 52.01 49.69 48.66 48.30 50.52 48.19 46.53 46.45 47.91 49.20 51.88 52.63 59.75 59.94 59.94 59.63 61.36 60.17 59.89 58.22 58.52 60.89 60.35 58.88 59.75 59.33 59.02 58.00 55.29 56.67 55.26 53.19 52.82
65.53 60.59 65.89 65.12 65.37 64.90 64.28 62.87 61.22 58.74 56.39 57.62 50.03 52.75 46.69 45.63 44.40 46.12 47.44 49.55 53.14 51.89 57.65 57.53 58.00 59.00 60.24 59.84 60.22 57.88 59.90 58.57 57.58 59.60 59.75 59.79 57.73 55.72 55.64 55.12 54.60 54.00 53.36
66.47 66.16 67.26 66.34 65.67 64.63 65.00 63.40 61.67 60.33 58.87 58.35 59.43 51.85 48.14 46.40 47.26 46.62 44.96 58.51 57.42 57.09 58.25 57.66 57.76 57.62 58.47 58.20 59.59 60.51 58.95 58.48 58.59 60.33 59.73 58.83 58.04 57.41 55.58 54.02 53.66 51.22 50.75
66.65 65.19 65.23 66.49 66.28 65.67 64.14 63.27 61.73 60.38 58.80 58.40 58.48 58.45 59.29 54.22 56.19 57.09 55.88 57.81 57.88 58.51 58.83 59.19 60.27 61.76 57.88 59.53 59.59 58.99 59.23 57.50 57.17 59.65 59.08 57.99 57.85 54.56 53.85 54.96 54.32 52.81 52.77
67.02 68.13 65.10 68.40 65.87 63.99 62.31 61.35 59.47 59.95 59.56 58.91 58.71 58.51 53.78 58.19 57.88 58.19 58.24 58.33 58.66 57.42 56.83 59.04 59.12 61.15 63.43 62.76 62.33 60.51 56.12 56.62 57.24 57.25 58.36 56.20 56.09 55.51 56.31 55.43 54.32 53.33 52.62
67.08 66.86 65.70 65.20 64.14 62.83 62.96 62.53 62.02 60.21 60.00 59.74 59.21 56.96 49.74 58.55 57.88 57.64 57.43 57.76 60.13 58.04 61.12 60.61 59.80 60.78 62.31 61.19 61.21 56.40 57.71 56.62 55.47 57.02 57.23 56.35 55.84 54.91 54.72 54.16 53.18 52.51 52.21
65.53 64.17 63.74 61.44 59.66 57.95 58.82 57.72 58.02 57.48 57.71 58.57 58.53 58.39 55.69 58.06 58.29 59.47 59.55 61.39 60.47 61.45 60.57 59.59 60.75 62.61 62.17 61.93 61.99 60.85 58.50 57.36 57.02 56.83 55.62 54.70 53.91 53.65 53.93 53.20 52.49 51.68 51.25
64.22 62.26 58.71 57.24 56.62 56.37 55.22 55.37 56.15 54.63 57.59 59.08 58.57 58.25 57.99 58.73 59.66 60.33 62.16 61.49 60.72 58.79 61.35 61.81 61.56 60.85 60.91 60.66 60.40 59.32 58.43 57.28 57.30 56.38 55.08 54.16 52.93 51.61 52.63 52.45 52.44 51.87 51.41
60.35 58.31 56.33 56.28 56.90 57.11 55.23 55.75 56.83 58.12 58.49 57.76 57.71 60.68 60.58 59.81 58.16 58.62 61.85 59.18 60.31 60.85 62.00 61.12 60.56 60.95 60.58 60.88 59.99 58.08 45.80 44.48 54.01 45.85 53.72 53.31 52.31 52.00 50.32 49.82 50.35 50.85 51.20
58.91 57.69 56.77 56.91 56.93 57.17 57.09 56.78 57.16 58.05 58.38 58.67 60.26 61.24 61.03 60.61 61.70 58.94 59.91 61.54 61.13 61.14 61.29 60.41 60.70 60.58 60.94 60.52 58.88 45.96 34.48 41.09 46.75 40.09 51.53 51.01 49.02 48.94 49.12 50.04 50.91 50.65 50.87
MSLP
1007.19 1007.75 1008.37 1008.99 1009.71 1010.37 1011.00 1011.60 1012.20 1012.80 1013.36 1014.07 1014.65 1015.19 1015.48 1015.67 1015.89 1016.34 1016.56 1016.95 1017.29 1017.55 1017.65 1017.63 1017.68 1017.62 1017.39 1017.06 1017.18 1017.32 1017.37 1017.44 1017.61 1017.40 1017.59 1017.71 1017.84 1017.94 1017.82 1017.70 1017.41 1017.42 1017.82
1006.29 1007.04 1007.75 1008.47 1009.20 1009.92 1010.56 1011.37 1012.18 1013.06 1013.80 1014.31 1014.88 1015.27 1015.54 1015.82 1015.99 1016.39 1016.56 1017.09 1017.50 1017.76 1017.94 1017.89 1017.89 1017.69 1017.64 1017.52 1017.60 1017.62 1017.81 1017.73 1017.81 1017.63 1017.69 1017.89 1017.93 1017.77 1017.56 1017.66 1017.33 1017.03 1017.29
1005.64 1006.38 1007.16 1007.92 1008.67 1009.49 1010.46 1011.38 1012.29 1013.04 1013.78 1014.37 1014.85 1015.15 1015.49 1015.89 1016.29 1016.56 1016.88 1017.14 1017.44 1017.71 1017.92 1018.08 1018.03 1018.00 1018.17 1018.11 1018.09 1018.15 1018.02 1017.94 1017.86 1017.80 1017.72 1017.78 1017.87 1017.90 1017.73 1017.52 1017.53 1017.19 1016.85
1005.08 1005.85 1006.69 1007.47 1008.15 1009.10 1010.13 1011.05 1011.90 1012.74 1013.46 1014.16 1014.78 1015.07 1015.33 1015.75 1016.20 1016.64 1017.18 1017.45 1017.63 1017.77 1017.93 1018.16 1018.46 1018.74 1018.85 1018.96 1018.61 1018.70 1018.73 1018.54 1018.27 1018.17 1017.87 1017.93 1018.28 1018.39 1018.31 1018.33 1018.17 1017.67 1017.43
1004.57 1005.32 1006.12 1006.96 1007.86 1008.84 1009.85 1010.79 1011.77 1012.60 1013.40 1013.97 1014.52 1014.85 1015.20 1015.61 1015.84 1016.42 1016.98 1017.35 1017.51 1017.78 1017.99 1018.41 1018.86 1019.08 1019.28 1019.23 1019.23 1019.25 1019.07 1018.95 1018.56 1018.70 1018.67 1018.89 1019.21 1019.19 1019.23 1018.96 1018.85 1018.51 1017.97
1004.05 1004.76 1005.59 1006.63 1007.61 1008.66 1009.93 1011.02 1011.86 1012.67 1013.43 1013.87 1014.53 1014.99 1015.19 1015.18 1015.59 1016.43 1016.83 1017.27 1017.48 1017.68 1018.13 1018.54 1018.99 1019.22 1019.44 1019.49 1019.55 1019.55 1019.42 1019.39 1019.30 1019.35 1019.27 1019.51 1019.76 1019.81 1019.69 1019.51 1019.29 1019.06 1018.81
1003.58 1004.54 1005.47 1006.53 1007.66 1008.87 1009.85 1010.87 1011.85 1012.62 1013.32 1013.80 1014.35 1014.89 1015.40 1015.67 1015.55 1016.13 1016.79 1017.13 1017.39 1017.62 1017.82 1018.16 1018.31 1018.74 1019.18 1019.34 1019.49 1019.54 1019.39 1019.24 1019.26 1019.46 1019.69 1019.80 1019.74 1019.72 1019.59 1019.54 1019.30 1019.13 1018.77
1003.16 1004.44 1005.63 1006.74 1007.71 1008.80 1009.77 1010.69 1011.41 1012.17 1012.85 1013.31 1013.89 1014.39 1015.17 1015.80 1015.91 1016.11 1016.56 1016.81 1017.10 1017.57 1017.89 1017.90 1018.11 1018.48 1018.74 1019.16 1019.41 1019.36 1019.29 1019.14 1019.06 1019.21 1019.26 1019.24 1019.30 1019.37 1019.40 1019.38 1019.20 1018.84 1018.38
1003.15 1004.47 1005.41 1006.28 1007.51 1008.71 1009.80 1010.35 1011.10 1011.89 1012.82 1013.48 1014.05 1014.64 1014.76 1015.44 1016.05 1016.18 1016.54 1016.55 1016.77 1017.32 1017.75 1017.98 1018.13 1018.38 1018.79 1019.00 1019.31 1019.27 1018.74 1018.57 1018.52 1018.70 1018.78 1018.76 1018.95 1019.21 1019.36 1019.41 1019.08 1018.79 1018.51
1003.58 1004.66 1005.57 1006.46 1007.43 1008.90 1009.92 1010.84 1011.60 1012.33 1012.79 1013.19 1013.70 1014.26 1014.71 1015.44 1016.09 1016.36 1016.67 1016.64 1016.64 1017.02 1017.43 1017.73 1018.03 1018.36 1018.76 1018.91 1019.09 1019.13 1018.97 1018.71 1018.72 1018.72 1018.77 1018.80 1018.61 1018.74 1019.24 1019.37 1019.20 1019.01 1018.84
1003.78 1005.09 1006.02 1006.98 1008.50 1009.57 1010.18 1010.82 1011.42 1012.27 1012.87 1013.21 1013.81 1014.27 1014.78 1015.20 1016.03 1016.32 1016.53 1016.58 1016.60 1016.53 1016.89 1017.25 1017.63 1017.97 1018.48 1018.80 1018.92 1019.02 1018.97 1018.82 1018.72 1018.54 1018.18 1017.96 1017.80 1017.82 1018.43 1018.82 1018.57 1018.44 1018.45
1003.85 1005.20 1006.20 1007.08 1007.98 1008.90 1009.51 1010.42 1011.03 1011.81 1012.64 1013.03 1013.63 1014.07 1013.81 1014.80 1015.53 1016.07 1016.18 1016.32 1016.53 1016.71 1016.14 1015.86 1016.59 1017.59 1018.02 1018.50 1018.67 1018.60 1018.71 1018.67 1018.63 1018.32 1017.90 1017.56 1017.26 1017.36 1017.74 1018.03 1018.03 1017.85 1017.78
1004.38 1005.34 1006.03 1007.20 1008.37 1009.28 1010.35 1011.06 1011.06 1011.60 1012.14 1012.55 1013.19 1013.74 1013.90 1014.40 1015.05 1015.43 1015.68 1016.08 1016.41 1016.48 1016.57 1016.72 1016.87 1017.28 1017.74 1017.99 1018.01 1018.06 1018.31 1018.66 1018.62 1018.33 1017.71 1017.10 1016.80 1016.75 1017.08 1017.20 1017.02 1017.30 1017.33
1004.45 1005.38 1006.23 1006.92 1008.19 1009.37 1010.46 1011.08 1010.82 1011.35 1011.75 1012.10 1012.67 1013.13 1013.43 1013.92 1014.60 1015.10 1015.41 1015.74 1016.01 1016.04 1016.22 1016.67 1017.04 1017.24 1017.37 1017.43 1017.51 1017.53 1017.75 1017.65 1017.48 1017.33 1017.04 1016.80 1016.32 1016.26 1016.68 1016.75 1016.84 1016.86 1017.08
1004.62 1005.40 1006.28 1007.36 1008.50 1009.36 1010.06 1010.39 1010.71 1010.63 1011.08 1011.47 1011.91 1012.30 1012.39 1012.93 1013.35 1014.08 1014.61 1014.99 1015.51 1015.63 1015.88 1016.14 1016.30 1016.66 1016.66 1016.63 1016.76 1016.75 1016.76 1016.77 1016.66 1016.29 1016.33 1016.11 1015.98 1015.96 1016.02 1016.24 1016.35 1016.43 1016.46
1004.71 1005.51 1006.34 1007.28 1008.33 1009.05 1009.31 1010.10 1010.36 1010.28 1010.67 1011.12 1011.37 1011.61 1011.82 1012.03 1012.29 1013.04 1013.90 1014.41 1014.68 1014.99 1015.61 1015.74 1015.64 1015.68 1015.72 1015.75 1015.85 1015.91 1015.87 1015.71 1015.56 1015.61 1015.74 1015.46 1015.58 1015.66 1015.81 1015.73 1015.91 1016.00 1016.12
1004.61 1005.60 1006.35 1007.11 1007.74 1007.93 1008.41 1008.94 1009.51 1010.76 1011.14 1011.08 1011.37 1011.63 1011.98 1012.71 1012.61 1013.00 1013.85 1014.25 1014.33 1014.54 1014.90 1014.93 1014.82 1014.74 1014.69 1014.82 1015.04 1015.16 1015.00 1014.51 1014.49 1014.56 1014.39 1014.63 1015.00 1015.24 1015.56 1015.44 1015.73 1015.57 1015.61
1004.61 1005.20 1005.87 1006.48 1006.66 1007.22 1007.63 1007.95 1008.55 1009.61 1010.50 1011.07 1011.62 1011.81 1012.33 1012.69 1013.19 1013.64 1014.02 1014.12 1014.57 1014.62 1014.36 1014.22 1014.16 1014.06 1013.95 1014.05 1014.05 1014.04 1014.29 1014.06 1013.80 1013.82 1013.84 1014.11 1014.34 1014.66 1014.81 1015.23 1015.14 1015.11 1014.96
1004.47 1005.15 1005.47 1006.06 1006.11 1006.69 1007.07 1007.20 1007.74 1008.35 1009.24 1009.93 1010.48 1011.78 1012.46 1013.02 1013.18 1013.54 1013.61 1013.56 1013.56 1013.60 1013.44 1013.31 1013.20 1013.20 1013.34 1013.45 1013.44 1013.53 1013.32 1013.12 1013.36 1013.28 1013.38 1013.68 1013.81 1014.10 1014.14 1014.21 1014.13 1014.56 1014.36
1003.99 1004.55 1005.00 1005.39 1005.66 1005.93 1006.09 1006.37 1006.75 1007.43 1008.23 1008.83 1009.35 1010.14 1011.23 1012.60 1013.10 1013.27 1013.15 1013.19 1013.24 1013.13 1012.79 1012.43 1012.21 1012.28 1012.44 1012.27 1012.48 1012.81 1012.67 1012.99 1012.82 1012.80 1012.99 1012.93 1013.14 1013.27 1013.48 1013.35 1013.47 1013.64 1013.89
1003.46 1003.82 1004.53 1004.64 1005.42 1005.74 1006.03 1006.47 1006.58 1006.77 1007.07 1007.53 1008.18 1008.83 1009.59 1010.59 1011.18 1011.33 1011.49 1011.71 1011.97 1012.15 1012.14 1012.13 1011.78 1011.77 1011.52 1011.37 1011.63 1011.80 1012.02 1012.24 1012.68 1012.31 1012.13 1012.35 1012.40 1012.79 1012.74 1012.80 1013.09 1013.32 1013.52
1002.82 1003.32 1003.96 1004.62 1005.15 1005.64 1006.20 1006.25 1005.96 1006.17 1006.33 1006.99 1007.65 1007.78 1008.37 1009.50 1009.87 1010.21 1010.41 1010.58 1010.48 1010.96 1010.89 1010.92 1011.05 1011.44 1010.84 1010.92 1011.06 1011.23 1011.64 1011.74 1011.86 1011.62 1011.65 1011.78 1011.99 1012.20 1012.35 1012.53 1012.70 1012.93 1013.06
1002.46 1003.24 1004.23 1004.89 1005.50 1006.07 1006.63 1006.84 1006.72 1007.27 1007.28 1007.31 1007.95 1008.29 1008.31 1008.50 1008.71 1008.71 1009.00 1009.07 1009.72 1009.86 1009.82 1009.93 1010.44 1010.17 1010.27 1010.30 1010.33 1010.51 1010.73 1010.99 1011.23 1011.41 1011.56 1011.76 1011.96 1012.13 1012.16 1012.17 1012.26 1012.35 1012.41
1002.52 1003.31 1004.36 1005.37 1006.13 1006.41 1006.89 1007.90 1007.71 1007.64 1008.44 1008.60 1008.33 1007.56 1007.39 1007.65 1007.61 1007.73 1007.85 1008.11 1008.43 1008.72 1008.93 1009.15 1009.35 1009.50 1009.77 1009.95 1010.14 1010.36 1010.51 1010.94 1011.06 1011.37 1011.82 1012.01 1012.12 1012.20 1012.19 1012.07 1011.95 1011.93 1012.01
1002.61 1003.48 1004.45 1005.20 1005.54 1006.15 1006.96 1007.66 1008.35 1008.48 1008.53 1007.78 1007.09 1006.66 1006.50 1007.09 1007.20 1007.32 1007.35 1007.49 1007.91 1008.24 1008.55 1008.74 1008.90 1009.18 1009.32 1009.41 1009.75 1010.33 1011.15 1011.31 1011.44 1011.82 1011.99 1012.24 1012.34 1012.27 1012.21 1012.14 1012.00 1011.84 1011.75
1002.50 1003.32 1004.35 1005.18 1006.03 1006.98 1008.06 1007.38 1007.14 1007.32 1006.84 1006.74 1006.14 1005.63 1005.83 1006.37 1006.68 1006.84 1006.95 1007.13 1007.55 1007.81 1008.12 1008.39 1008.55 1008.73 1008.76 1008.95 1009.33 1010.19 1010.99 1011.27 1011.44 1011.66 1011.78 1012.03 1012.14 1012.09 1012.03 1011.87 1011.67 1011.54 1011.42
Wind_Speed
16 16 15 13 13 9 10 8 6 8 9 8 6 6 5 5 4 6 7 5 5 3 3 2 3 3 4 3 4 4 5 4 4 4 3 3 4 3 2 4 5 2 4
17 16 15 14 13 11 8 9 9 9 7 6 6 6 5 5 5 4 4 6 4 4 3 3 5 2 4 4 2 3 2 2 2 3 3 2 3 2 3 3 4 3 6
17 17 15 15 13 12 11 11 11 9 6 7 7 6 6 6 5 4 6 5 5 5 3 3 3 4 5 4 4 4 2 3 2 3 1 1 1 0 4 3 4 4 2
17 16 14 15 14 13 11 11 12 10 9 9 7 6 6 7 6 7 5 4 5 4 4 5 6 9 8 7 5 6 5 4 5 3 1 2 4 5 4 4 5 4 4
15 15 14 14 14 13 12 12 12 11 9 8 7 7 7 6 8 8 6 5 5 5 5 7 6 7 9 7 4 5 6 6 6 7 5 6 5 4 4 4 4 4 3
14 16 15 16 15 15 14 12 12 11 9 8 8 7 7 8 19 13 8 5 5 5 7 6 5 7 6 7 7 7 4 3 6 4 5 5 5 3 4 4 4 4 3
15 15 16 16 15 15 14 13 12 11 10 9 9 8 5 8 14 14 6 7 5 5 6 6 6 7 7 5 5 3 1 1 2 1 4 2 2 2 3 4 4 4 5
16 15 16 16 16 15 14 14 13 12 11 10 10 9 10 6 9 11 7 6 5 5 5 3 4 7 5 2 1 6 7 6 5 5 4 4 4 3 3 3 5 6 6
15 17 17 17 16 15 15 15 13 12 10 9 8 8 11 10 10 10 7 5 8 5 5 3 2 5 7 4 3 6 3 2 7 4 4 5 5 6 6 4 3 4 5
13 15 15 15 16 14 13 12 10 9 9 8 9 8 8 9 10 9 6 4 8 7 6 5 7 2 10 8 3 4 5 3 4 4 4 7 9 7 8 6 4 3 3
14 14 13 13 12 11 12 10 11 10 9 8 8 8 6 11 9 10 10 6 2 5 9 8 8 13 12 9 7 3 4 4 6 5 5 6 7 8 6 6 6 3 2
15 14 13 13 11 10 13 12 12 9 10 8 9 8 8 10 11 11 12 11 6 3 4 5 8 16 13 10 7 10 10 7 4 5 6 7 1 4 7 7 7 5 3
14 13 13 13 11 10 10 11 10 9 9 8 8 8 8 8 7 14 13 10 10 4 5 5 9 11 11 9 12 11 6 3 5 7 8 4 2 2 7 5 6 7 6
13 11 12 13 11 10 8 7 9 9 9 9 9 9 8 9 8 7 6 6 9 4 4 6 9 9 10 9 6 7 6 7 8 8 7 6 3 4 3 3 3 4 4
10 12 11 9 11 10 9 9 8 9 10 9 9 9 9 10 11 13 12 9 7 8 5 4 5 6 7 7 6 7 6 6 9 9 9 8 4 2 2 3 3 4 3
9 10 10 10 8 9 10 8 6 5 8 8 7 7 2 3 12 21 14 12 11 8 7 7 8 7 8 8 5 5 7 9 7 7 9 9 4 3 4 4 4 3 3
11 11 7 10 10 10 10 9 9 4 6 9 11 10 10 9 14 16 12 10 8 9 4 7 6 5 4 4 7 8 7 6 4 6 5 4 4 4 3 3 3 3 7
10 12 10 10 9 9 8 10 9 9 7 5 4 8 7 11 11 14 14 11 4 2 4 5 6 7 5 5 5 6 5 4 4 4 2 2 5 4 3 5 4 7 7
10 9 9 8 8 10 11 9 10 9 8 7 8 5 9 7 8 6 4 2 4 6 7 8 10 9 6 3 6 4 5 6 7 5 4 4 4 5 4 6 7 6 4
11 13 11 11 9 11 8 7 8 8 10 9 8 9 10 7 5 6 5 5 6 7 7 7 8 5 6 7 7 5 6 3 3 2 4 4 4 4 5 3 1 1 0
9 9 15 8 6 4 4 6 8 8 9 9 9 11 14 10 9 8 8 9 9 8 7 7 4 7 5 5 5 2 1 3 8 5 5 5 4 2 2 3 2 2 3
9 7 9 6 6 6 5 8 6 7 7 8 7 9 21 11 10 9 9 9 7 9 8 6 2 11 1 2 1 2 5 8 6 3 1 1 1 2 3 3 3 4 5
8 8 6 5 5 7 5 4 6 7 5 6 6 2 11 11 10 9 10 6 7 9 7 5 7 5 4 4 3 1 2 2 2 3 3 3 3 4 4 4 5 5 5
8 10 10 8 7 8 9 9 7 10 4 5 13 7 8 7 8 6 5 4 4 4 3 2 2 3 2 1 1 3 4 5 4 5 8 5 4 6 6 6 5 6 6
11 11 11 10 9 8 9 10 7 8 12 11 10 8 9 6 4 3 5 4 3 3 1 0 1 4 5 4 4 6 7 7 6 4 1 3 6 7 7 7 8 7 7
12 13 11 9 8 7 6 8 11 12 12 12 11 3 8 6 4 4 2 2 3 4 3 3 3 6 4 3 3 11 11 10 6 5 1 2 4 5 6 7 10 7 7
Wind_Direction
185 186 190 190 189 184 173 171 137 134 133 140 135 140 148 154 158 89 80 100 84 82 113 90 90 9 8 21 42 10 32 22 347 26 113 107 99 82 309 291 291 153 150
185 183 189 184 185 189 148 148 145 132 130 127 139 156 157 149 130 134 166 116 130 113 89 64 25 50 16 36 13 58 53 73 358 356 34 99 99 75 265 267 301 42 158
187 180 184 181 181 171 148 139 133 132 134 142 162 164 152 142 146 136 101 124 123 117 116 94 99 95 35 28 50 12 39 3 352 321 120 146 109 320 14 357 309 311 194
186 180 184 180 176 155 147 140 143 146 154 154 170 157 154 148 149 117 122 130 137 119 109 82 45 43 38 17 13 357 25 336 274 288 336 89 60 13 32 14 344 357 344
187 179 175 172 152 147 145 144 146 147 157 156 157 160 148 165 158 131 146 161 121 130 105 100 77 83 74 57 35 12 18 7 20 16 27 45 40 0 19 345 345 346 292
185 179 166 150 151 144 141 146 147 152 155 156 163 164 171 193 133 150 152 150 146 145 117 114 143 132 117 96 80 66 60 23 44 18 40 36 11 17 350 346 310 355 323
177 173 158 153 144 147 149 150 152 155 158 164 166 160 182 131 132 132 139 149 159 159 146 173 194 130 163 151 155 150 206 122 118 17 86 60 29 321 312 318 328 313 288
173 157 155 147 147 151 153 156 162 163 165 169 166 168 138 149 148 146 140 166 166 147 149 203 115 138 92 72 269 211 206 213 215 206 149 198 227 223 264 260 262 263 280
169 160 160 153 148 155 165 168 164 161 161 165 166 181 165 153 171 158 162 204 142 167 157 181 157 134 148 130 323 316 258 279 174 153 219 243 244 247 261 315 329 343 338
162 166 156 154 154 168 165 160 158 153 156 162 167 180 153 155 177 174 185 251 157 174 171 176 178 136 169 168 206 299 316 44 10 187 257 252 244 231 232 246 311 338 338
150 156 154 148 145 166 158 162 154 155 159 171 166 174 187 153 179 191 201 237 314 210 175 186 195 171 180 191 201 251 271 343 319 296 268 264 236 213 177 227 239 200 246
138 153 151 150 158 159 160 155 156 155 162 169 171 180 179 155 168 200 201 209 277 311 259 186 167 171 178 192 197 226 246 262 270 275 272 275 326 126 176 208 202 215 210
150 162 158 142 151 152 153 159 156 165 170 168 178 188 185 165 172 188 199 197 222 240 113 60 151 165 181 199 222 235 239 245 259 269 270 269 259 163 175 201 190 197 219
159 155 146 149 139 141 157 179 165 170 175 180 183 197 190 178 177 186 196 195 224 235 236 156 178 189 193 217 234 220 221 221 226 246 259 267 261 166 183 211 234 218 220
159 149 145 128 147 159 174 180 186 184 186 189 187 200 200 186 188 183 184 187 197 206 204 223 216 200 215 226 237 240 234 227 237 237 249 258 248 212 195 207 253 281 234
145 148 146 148 159 177 174 185 46 190 169 164 103 197 176 143 162 172 164 151 148 159 193 222 228 228 225 225 207 235 245 242 234 229 237 221 194 198 217 216 228 241 253
146 148 154 163 170 184 191 176 182 83 46 128 107 84 104 127 109 112 121 120 127 121 197 217 244 263 231 195 204 217 250 248 237 279 226 195 167 203 221 210 259 264 275
157 176 170 187 185 186 198 177 179 173 175 168 153 132 130 123 119 133 149 153 145 199 222 237 242 244 246 250 255 222 222 270 287 246 165 174 172 208 195 230 247 261 247
167 178 178 199 185 192 200 183 180 178 175 186 179 155 127 120 121 112 121 232 205 221 218 224 234 234 241 222 262 228 213 212 244 209 178 196 221 236 218 237 243 255 121
188 193 203 191 201 198 195 180 177 178 176 189 192 186 161 151 179 185 195 207 227 241 250 262 270 222 199 217 237 225 248 297 280 209 247 232 239 232 243 272 282 338 229
196 182 203 176 181 155 153 191 192 195 183 179 190 169 173 183 201 206 209 207 217 227 242 253 284 306 220 194 207 164 91 335 281 271 234 202 192 254 295 257 244 248 248
198 183 184 177 152 162 204 225 194 189 166 166 203 166 168 189 199 206 217 218 219 207 218 206 251 281 6 72 224 215 245 228 231 241 244 319 286 270 254 236 231 235 235
146 143 144 80 99 105 82 63 72 56 32 48 2 212 183 195 204 201 213 184 194 209 222 193 239 205 196 215 245 284 24 342 357 7 7 360 343 315 291 255 239 240 237
148 134 121 110 116 102 85 46 28 35 342 244 244 210 183 197 208 219 190 202 224 208 117 77 7 345 77 129 37 311 44 36 39 47 36 9 334 322 320 309 281 261 259
136 131 132 142 127 115 127 151 185 214 240 241 248 208 193 190 149 226 236 185 135 97 97 66 262 263 259 215 209 128 116 98 98 112 40 316 285 282 283 291 297 296 293
140 133 126 115 112 128 191 188 203 224 227 235 235 195 158 177 199 195 139 140 168 194 193 204 237 279 268 258 210 127 145 153 138 140 157 248 275 280 281 277 273 270 269